www.pogodaiklimat.ru
Время
(UTC), дата
18 7.08
21 7.08
00 8.08
03 8.08
06 8.08
09 8.08
12 8.08
15 8.08
18 8.08
21 8.08
00 9.08
03 9.08
06 9.08
09 9.08
12 9.08
15 9.08
18 9.08
21 9.08
00 10.08
03 10.08
06 10.08
09 10.08
12 10.08
15 10.08
18 10.08
21 10.08
00 11.08
03 11.08
06 11.08
09 11.08
12 11.08
15 11.08
18 11.08
21 11.08
00 12.08
03 12.08
06 12.08
09 12.08
12 12.08
15 12.08
18 12.08
21 12.08
00 13.08
03 13.08
06 13.08
09 13.08
12 13.08
15 13.08
18 13.08
21 13.08
00 14.08
03 14.08
06 14.08
09 14.08
12 14.08
15 14.08
Ветер
(напр.,м/с)
Видим. Явления Облачность Т
(С)
Тd
(С)
f
(%)
Тe
(С)
Тes
(С)
Комфортность P
(гПа)
Po
(гПа)
Тmin
(С)
Tmax
(С)
R
(мм)
R24
(мм)
S
(см)
СВ 1 50 км 10/3 1000 м
[Sc diur, vesp Ac lent]
+16.1 +14.4 90 +17 +17 1022.2 1020.8
штиль 0 50 км 10/0
[Ac lent]
+14.5 +13.7 95 +14 +14 1021.4 1019.9
штиль 0 50 км 10/0
[Ac lent]
+15.9 +14.1 89 +16 +16 1020.8 1019.4
З 2 50 км {ливн. дождь} 8/3 1000 м
[Sc diur, vesp Ac cast]
+17.0 +15.7 92 +17 +18 1020.4 1018.9 +14.3 2
С 2 50 км {ливн. дождь} 9/3 600 м
[Cu Sc Ac trans Ci fib]
+18.8 +14.8 78 +20 +23 1020.7 1019.3
СЗ 4 50 км 8/3 600 м
[Cb cap Ac lent Ci sp]
+19.5 +15.5 78 +21 +24 комфорт 1020.9 1019.4
СЗ 4 50 км 4/1 600 м
[Cb cap Ac lent Ci fib]
+19.9 +12.3 62 +22 +25 комфорт 1021.1 1019.7
С 3 50 км 1/0
[Ci fib]
+18.7 +10.1 57 +19 +21 1021.0 1019.5 +20.3
С 2 50 км 8/3 600 м
[Sc Ac lent Ci fib]
+14.0 +9.9 76 +14 +14 1021.0 1019.5
СВ 1 50 км 1/0
[Ac lent]
+9.9 +8.6 92 +9 +9 1020.8 1019.3
штиль 0 50 км 3/0
[Ac lent Ci fib]
+7.7 +7.3 97 +7 +7 1020.6 1019.1
ЮВ 1 50 км 6/0
[Ac lent Ci fib]
+9.8 +9.5 98 +9 +10 1019.8 1018.4 +6.9
Ю 1 50 км 6/0
[Ac trans Ci fib]
+16.2 +10.8 70 +17 +22 1019.0 1017.6
Ю 3 50 км 10/3 600 м
[Sc Ac trans Ci fib]
+20.1 +9.7 51 +22 +24 комфорт 1017.5 1016.1
Ю 2 50 км 10/3 1000 м
[Sc Ac trans Ci fib]
+20.4 +10.9 54 +23 +25 комфорт 1016.6 1015.2
ЮЗ 2 50 км 9/4 600 м
[Sc Ac lent]
+19.2 +11.5 61 +21 +21 комфорт 1014.9 1013.5 +21.5
ЮВ 1 50 км 10/4 1000 м
[Sc Ac und]
+16.7 +12.4 76 +18 +18 1013.4 1012.0
Ю 2 10 км слаб. ливневой дождь 10/5 300 м
[Cb cap Ac As]
+15.2 +13.0 87 +15 +15 1012.3 1010.9
ЮВ 1 20 км в посл. час ливневой дождь 10/10 480 м
[Cb cap]
+14.7 +14.0 96 +15 +15 1010.9 1009.5
ЮВ 1 20 км 10/10 180 м
[Cb cap]
+14.9 +14.5 97 +15 +15 1009.7 1008.3 +14.6 2
СЗ 5-10
{10}
50 км {ливн. дождь} 10/10 120 м
[St]
+15.1 +14.5 96 +14 +14 1009.2 1007.8
З 5
{11}
10 км слаб. ливневой дождь 10/10 180 м
[Cb cap]
+14.2 +13.5 96 +12 +12 1009.8 1008.3
ЮЗ 3
{11}
4000 м морось {ливн. дождь, снег} 10/10 150 м
[St]
+14.4 +13.9 97 +13 +13 1010.0 1008.6
ЮЗ 3 2000 м слаб. морось 10/10 90 м
[St]
+13.9 +13.6 98 +13 +13 1009.3 1007.9 +15.6 8
В 3 4000 м морось {дождь, снег} 10/10 660 м
[St]
+13.6 +13.3 98 +12 +12 1010.3 1008.9
СВ 6-10
{10}
4000 м ливневой дождь {снег} 10/10 120 м
[Cb cap]
+12.5 +11.9 96 +10 +10 1012.5 1011.0
СВ 7-12
{13}
10 км слаб. ливневой дождь 10/10 210 м
[Cb cap]
+11.0 +10.1 94 +7 +7 1014.6 1013.2
СВ 5
{12}
50 км 10/8 1500 м
[Sc Ac trans Ci fib]
+11.0 +8.7 86 +8 +8 1016.7 1015.2 +10.6 15
СВ 5
{11}
50 км 8/4 1000 м
[Sc diur, vesp Ac cast]
+12.7 +9.5 81 +10 +11 1018.6 1017.1
СВ 5
{10}
50 км 10/10 1110 м
[Sc diur, vesp]
+13.8 +8.2 69 +12 +12 1019.7 1018.2
С 3 50 км 10/10 1080 м
[Sc]
+14.0 +8.0 67 +13 +13 1020.6 1019.1
С 3 50 км 6/3 1000 м
[Sc diur, vesp Ac lent]
+15.1 +8.0 63 +14 +15 1020.7 1019.2 +15.3
С 2 50 км 8/0
[Ac lent]
+12.3 +8.8 79 +11 +11 1021.0 1019.5
С 2 50 км 10/0
[Ac lent]
+10.9 +8.8 87 +10 +10 1020.7 1019.2
СЗ 1 50 км 10/0
[Ac lent]
+10.5 +9.5 94 +10 +10 1020.9 1019.4
С 1 50 км 10/0
[Ac lent]
+10.6 +9.4 92 +10 +10 1020.8 1019.3 +10.1
СВ 3 50 км 9/4 600 м
[Cb cap Ac trans]
+12.8 +8.6 76 +11 +13 1020.7 1019.2
СЗ 4 50 км 9/5 600 м
[Cb cap Ac trans]
+14.1 +8.1 67 +13 +14 1020.2 1018.7
СВ 3 50 км 10/8 420 м
[Cb cap Ac lent Ci fib]
+12.8 +10.0 83 +11 +12 1020.2 1018.7
С 3 50 км {ливн. дождь} 10/5 300 м
[Cb cap Ac lent]
+13.5 +8.4 71 +12 +12 1019.5 1018.0 +15.6 0.3
СВ 2 50 км {ливн. дождь} 10/10 1380 м
[Sc]
+11.0 +8.1 82 +10 +10 1019.4 1017.9
С 1 50 км 10/10 1200 м
[Sc]
+9.7 +8.7 93 +9 +9 1018.8 1017.3
Ю 1 50 км 10/10 750 м
[Cb cap]
+9.4 +8.3 93 +9 +9 1018.2 1016.8
ЮВ 1 50 км 10/8 600 м
[Cb cap Ac lent]
+9.8 +8.6 92 +9 +9 1017.2 1015.7 +9.3
ЮЗ 1 50 км 10/8 1350 м
[Cb cap Ac lent]
+12.0 +9.9 87 +12 +12 1016.5 1015.0
З 2 50 км {ливн. дождь} 9/5 600 м
[Cb cap Ac trans]
+13.7 +9.6 76 +13 +15 1016.3 1014.8
З 2 50 км {ливн. дождь} 10/10 1200 м
[Cb cap]
+14.1 +9.1 72 +14 +14 1015.9 1014.5
штиль 0 50 км в посл. час ливневой дождь 10/10 930 м
[Cb cap]
+13.3 +11.0 86 +13 +13 1015.3 1013.8 +14.8 0.3
СВ 1 10 км слаб. ливневой дождь 10/10 1200 м
[Cb cap]
+11.7 +11.3 97 +11 +11 1015.2 1013.8
СВ 1 4000 м морось {ливн. дождь, снег} 10/10 150 м
[St]
+11.1 +10.7 97 +11 +11 1015.3 1013.8
В 3 50 км в посл. час зёрна {ливн. дождь} 10/10 1080 м
[St]
+10.0 +9.4 96 +8 +8 1015.3 1013.8
СЗ 2 50 км 10/8 570 м
[Cb cap Ci fib]
+9.8 +9.0 95 +8 +8 1015.7 1014.2 +9.6 6
В 1 50 км 9/5 300 м
[Cb cap Ac trans Ci fib]
+13.6 +9.8 78 +14 +16 1015.3 1013.8
З 2 50 км 10/4 1000 м
[Cu Sc Ac trans Ci fib]
+14.8 +8.9 68 +15 +17 1014.8 1013.4
С 1 10 км слаб. ливневой дождь 10/8 450 м
[Cb cap Ac cuf]
+14.8 +7.4 61 +15 +16 1014.1 1012.7
ЮВ 1 50 км {ливн. дождь} 10/0
[Ac As]
+14.8 +9.6 71 +15 +16 1012.9 1011.4 +15.7 0.0
Местоположение метеостанции Онега (Архангельская область, Россия): широта 63.90 долгота 38.12 высота над уровнем моря 13 м.
В архиве по умолчанию представлена погода в Онеге за последнюю неделю. Архивные данные за месяц целиком и за предыдущие месяцы, начиная с января 2011 года, Вы можете получить, выбрав интересующий диапазон дат из раскрывающегося списка и нажав кнопку "Найти!".
*Определитесь, кто Вы:
Внимание! Время в таблицах - всемирное. Для получения местного времени необходимо прибавить поправку, которая равна 3 ч.
Смотрите также архив погоды в соседних городах и на ближайших метеорологических станциях:
Партнеры нашего сайта:      
Пояснения к столбцам:
  • Ветер - указаны скорость ветра в м/с - средняя за 10 мин, порывы в срок и между сроками (в фигурных скобках) и направление, откуда дует ветер: С - северный,
  • СВ - северо-восточный, В - восточный, ЮВ - юго-восточный, Ю - южный, ЮЗ - юго-западный, З - западный, СЗ - северо-западный.
  • Видимость - горизонтальная дальность видимости в метрах или километрах. При видимости от 1 до 10 км при отсутствии осадков обычно наблюдается дымка, при ухудшении видимости до 1 км и менее - туман. В сухую погоду видимость может ухудшаться дымом, пылью или мглою.
  • Явления - указаны атмосферные явления, наблюдавшиеся в срок или в последний час перед сроком; фигурными скобками обозначены явления, наблюдавшиеся между сроками (за 1-3 часа до срока); квадратными скобками обозначены град или гололедные отложения с указанием их диаметра в мм.
  • Облачность - указаны через наклонную черту общая и нижняя облачность в баллах и высота нижней границы облаков в метрах; квадратными скобками обозначены формы облаков: Ci - перистые, Cs - перисто-слоистые, Cc - перисто-кучевые, Ac - высококучевые, As - высокослоистые, Sc - слоисто-кучевые, Ns - слоисто-дождевые, Cu - кучевые, Cb - кучево-дождевые. Подробнее классификацию облаков см. в Атласе облаков (PDF).
  • T - Температура воздуха - температура, измеренная на высоте 2 м над землей.
  • Td - Температура точки росы - температура, при понижении до которой содержащийся в воздухе водяной пар достигнет насыщения.
  • f - Относительная влажность воздуха - влажноcть воздуха, измеренная на высоте 2 м над землей.
  • Te - Эффективная температура - температура, которую ощущает одетый по сезону человек в тени. Характеристика душности погоды. При расчете учитывается влияние влажности воздуха и скорости ветра на теплоощущения человека.
  • Tes - Эффективная температура на солнце - температура, которую ощущает человек, с поправкой на солнечный нагрев. Характеристика знойности погоды. Зависит от высоты солнца над горизонтом, облачности и скорости ветра. Ночью, в пасмурную погоду, а также при ветре 12 м/с и более поправка равна нулю.
  • P - Атмосферное давление - приведенное к уровню моря атмосферное давление.
  • Po - Атмосферное давление - измеренное на уровне метеостанции атмосферное давление.
  • Tmin - Минимальная температура - минимум температуры воздуха на высоте 2 м над землей.
  • Tmax - Максимальная температура - максимум температуры воздуха на высоте 2 м над землей.
  • R - Количество осадков - Количество выпавших осадков за период времени, мм. При наведении курсора мыши на число - период времени, за который выпало указанное количество осадков.
  • R24 - Количество осадков - Количество выпавших осадков за 24 часа, мм.
  • S - Снежный покров - Высота снежного покрова, см. При наведении курсора мыши на число - состояние снежного покрова и степень покрытия местности в баллах.